This is the latest recevied weather packets stored in our database for station/object EA1FBN. If no packets are shown the sender has not sent any weather packets the latest 10 day(s).
| Time | Temp. | Humidity | Pressure | Rain* | Wind** | Luminosity | Snow |
|---|---|---|---|---|---|---|---|
| 1777748423 | 15° C | 72% | 1014.3 hPa | 0.25 mm | - | - | - |
| 1777748123 | 15° C | 71% | 1014.2 hPa | 0.25 mm | - | - | - |
| 1777747823 | 15° C | 71% | 1014.2 hPa | 0.25 mm | - | - | - |
| 1777747523 | 15.56° C | 71% | 1014.1 hPa | 0.25 mm | - | - | - |
| 1777747223 | 15.56° C | 70% | 1014 hPa | 0.25 mm | - | - | - |
| 1777746923 | 15.56° C | 71% | 1014 hPa | 0 mm | - | - | - |
| 1777746623 | 15.56° C | 72% | 1013.9 hPa | 0 mm | - | - | - |
| 1777746323 | 15.56° C | 71% | 1013.9 hPa | 0 mm | - | - | - |
| 1777746023 | 16.11° C | 72% | 1013.8 hPa | 0 mm | - | - | - |
| 1777745723 | 15.56° C | 72% | 1013.7 hPa | 0 mm | - | - | - |
| 1777745423 | 16.11° C | 72% | 1013.7 hPa | 0 mm | - | - | - |
| 1777745123 | 16.11° C | 73% | 1013.7 hPa | 0 mm | - | - | - |
| 1777744823 | 16.11° C | 73% | 1013.8 hPa | 0 mm | - | - | - |
| 1777744523 | 15.56° C | 73% | 1013.8 hPa | 0 mm | - | - | - |
| 1777744223 | 15.56° C | 74% | 1013.8 hPa | 0 mm | - | - | - |
| 1777743923 | 15.56° C | 74% | 1013.8 hPa | 0 mm | - | - | - |
| 1777743623 | 15.56° C | 74% | 1013.7 hPa | 0 mm | - | - | - |
| 1777743323 | 15° C | 74% | 1013.8 hPa | 0 mm | - | - | - |
| 1777743023 | 15° C | 72% | 1013.7 hPa | 0 mm | - | - | - |
| 1777742723 | 14.44° C | 71% | 1013.9 hPa | 0 mm | - | - | - |
| 1777742423 | 14.44° C | 67% | 1013.9 hPa | 0 mm | - | - | - |
| 1777742123 | 14.44° C | 67% | 1014 hPa | 0 mm | - | - | - |
| 1777741823 | 13.89° C | 69% | 1014.1 hPa | 0 mm | - | - | - |
| 1777741523 | 13.89° C | 69% | 1014.2 hPa | 0 mm | - | - | - |
| 1777741223 | 13.89° C | 70% | 1014.2 hPa | 0 mm | - | - | - |
* Rain latest hour (hover to see other rain measurements)
** Current wind speed in m/s (hover to see current wind gust speed)